www.pogodaiklimat.ru

Погода и климат >> Архив погоды >> Россия >> Краснодарский край >> Красная Поляна


ПОГОДА в Красной Поляне

  • Прогноз погоды в Красной Поляне
  • Монитор погоды в Красной Поляне
  • Климат города

АРХИВ ПОГОДЫ в Красной Поляне

Время (UTC), дата Ветер
(напр.,м/с)
 
Видим.   Явления Облачность Т
(С)
Тd
(С)
f
(%)
Тe
(С)
Тes
(С)
Комфортность P
(гПа)
Po
(гПа)
Тmin
(С)
Tmax
(С)
R
(мм)
R24
(мм)
S
(см)
00 10.08 С 1 20 км ясно +21.1 +18.3 84 +25 +25 комфорт 1014.8 951.1
03 10.08 штиль 0 20 км ясно +19.4 +17.2 87 +21 +22 комфорт 1015.3 951.2 +19.3
06 10.08 ЮВ 1 20 км ясно +26.2 +16.2 54 +30 +40 душно 1013.1 950.5
09 10.08 ЮЗ 3 20 км 1/1 1500 м
[Cu hum]
+31.1 +19.5 50 +37 +50 очень
душно
1010.2 948.9
12 10.08 ЮЗ 3 18 км 4/4 600 м
[Cu med, cong]
+31.6 +22.1 57 +40 +46 очень
душно
1008.7 947.6
15 10.08 ЮЗ 1 20 км 8/6 1000 м
[Cu med, cong Ac cast]
+29.6 +22.8 67 +39 +40 очень
душно
1008.9 947.5 +32.0
18 10.08 С 2 20 км ясно +25.6 +20.2 72 +32 +32 очень
душно
1010.2 947.8
21 10.08 С 1 20 км 4/4 1000 м
[Sc]
+22.6 +17.7 74 +28 +28 душно 1011.4 948.2
00 11.08 СВ 1 20 км ясно +20.7 +17.5 82 +26 +26 душно 1011.0 947.5
03 11.08 С 1 20 км ясно +20.4 +17.0 81 +25 +25 комфорт 1011.5 947.9 +20.0
06 11.08 Ю 1 20 км ясно +27.7 +17.6 54 +32 +42 очень
душно
1008.8 946.8
09 11.08 ЮЗ 2 20 км 8/6 1500 м
[Cu Sc Ci fib]
+31.6 +19.6 49 +37 +44 очень
душно
1006.8 945.8
12 11.08 ЮЗ 2 20 км 4/1 1500 м
[Cu hum Ac cast Cs]
+32.9 +21.4 51 +41 +49 опасность
перегрева
1005.3 944.7
15 11.08 З 1 20 км 3/0
[Ci]
+29.6 +19.9 56 +36 +37 очень
душно
1005.1 943.8 +33.8
18 11.08 С 1 20 км 3/0
[Ci fib]
+25.8 +20.8 74 +32 +32 очень
душно
1007.4 945.2
21 11.08 С 1 20 км 3/0
[Ac As]
+23.5 +20.4 83 +29 +29 душно 1008.6 945.9
00 12.08 штиль 0 20 км ясно +21.8 +19.9 89 +27 +27 душно 1008.6 945.5
03 12.08 штиль 0 20 км ясно +21.1 +19.4 90 +26 +26 душно 1009.0 945.7 +21.0
06 12.08 ЮВ 1 18 км 3/0
[Ci]
+27.9 +19.7 61 +34 +43 очень
душно
1007.1 945.3
09 12.08 ЮЗ 2 19 км 3/0
[Ac lent Ci]
+31.7 +20.0 50 +38 +53 опасность
солнечного
удара
1004.9 944.0
12 12.08 ЮЗ 3 20 км 8/6 1000 м
[Cu med, cong Ac lent]
+31.7 +21.0 53 +39 +41 очень
душно
1003.5 942.7
15 12.08 З 1 20 км 3/0
[Ci]
+29.6 +22.6 66 +39 +40 очень
душно
1003.0 941.9 +32.7
18 12.08 С 1 20 км 8/8 1080 м
[Sc diur, vesp]
+25.4 +22.1 82 +33 +33 очень
душно
1005.7 943.6
21 12.08 С 2 20 км ясно +23.9 +20.6 82 +30 +30 очень
душно
1006.1 943.6
00 13.08 С 1 20 км ясно +21.2 +18.8 86 +26 +26 душно 1006.3 943.2
03 13.08 В 1 20 км ясно +20.2 +17.4 84 +24 +25 комфорт 1006.1 942.8 +20.1
06 13.08 ЮВ 1 20 км 10/1 1500 м
[Sc diur, vesp Ac As Ci]
+25.7 +16.0 55 +29 +33 душно 1005.0 942.8
09 13.08 ЮЗ 2 20 км ясно +32.3 +19.2 46 +38 +54 опасность
солнечного
удара
1002.2 941.6
12 13.08 З 2 20 км 3/3 1500 м
[Sc diur, vesp]
+32.5 +20.1 48 +39 +46 очень
душно
1001.3 940.8
15 13.08 ЮЗ 1 20 км 6/6 1000 м
[Cb calv]
+28.6 +20.6 62 +35 +36 очень
душно
1002.7 941.4 +33.5
18 13.08 штиль 0 10 км ясно +23.8 +22.4 92 +31 +31 очень
душно
1005.5 943.1
21 13.08 штиль 0 17 км ясно +22.6 +21.2 92 +30 +30 очень
душно
1006.9 944.1
00 14.08 штиль 0 20 км 10/0
[Ac lent]
+22.3 +19.5 84 +28 +28 душно 1007.0 944.1
03 14.08 ЮВ 1 20 км 10/0
[Ac lent]
+21.6 +19.2 86 +27 +27 душно 1007.6 944.5 +21.5
06 14.08 ЮЗ 1 20 км 4/1 1500 м
[Cu hum Ci sp]
+27.1 +19.5 63 +33 +41 очень
душно
1006.3 944.4
09 14.08 ЮЗ 2 20 км 5/3 1000 м
[Cu med, cong Ac cast Ci sp]
+30.3 +18.4 49 +35 +45 очень
душно
1006.1 944.8
12 14.08 ЮЗ 2 20 км в посл. час гроза 9/9 1000 м
[Cb calv]
+30.0 +18.8 51 +35 +36 очень
душно
1006.2 944.9
15 14.08 Ю 2 20 км 8/8 1000 м
[Cb calv Ac cast Ci sp]
+30.0 +19.1 52 +35 +36 очень
душно
1006.7 945.4 +32.5
18 14.08 С 1 20 км {гроза, ливн. осадки} 4/3 1000 м
[Sc Ac cast]
+22.1 +19.1 83 +28 +28 душно 1010.2 947.1
21 14.08 В 1 20 км 8/6 1000 м
[Sc Ac cuf]
+21.4 +17.8 80 +26 +26 душно 1011.5 948.1
00 15.08 СВ 1 20 км 8/0 1500 м
[Ac cast Cs]
+20.6 +17.6 83 +25 +25 комфорт 1011.5 947.9
03 15.08 ЮЗ 1 16 км в посл. час ливневой дождь {гроза} 9/8 1000 м
[Cb calv Ac cuf Ci sp]
+19.4 +18.9 97 +23 +23 комфорт 1011.6 947.8 +19.2 0.5
06 15.08 ЮЗ 1 20 км {гроза, ливн. осадки} 4/3 600 м
[Cu hum Ac As]
+25.1 +18.8 68 +30 +36 душно 1010.1 947.6
09 15.08 СЗ 4 14 км гроза, ливневой дождь 10/10 1080 м
[Cb cap]
+24.3 +19.2 73 +29 +29 душно 1009.6 946.9
12 15.08 З 2 6000 м гроза, ливневой дождь 10/10 240 м
[Cb cap]
+20.4 +20.4 100 +25 +25 комфорт 1011.6 948.1
15 15.08 СВ 2 20 км {гроза, ливн. осадки} 10/8 1500 м
[Sc Ac As Cc]
+20.7 +17.1 80 +25 +25 комфорт 1011.4 947.8 +29.5 3
18 15.08 С 1 20 км {гроза, ливн. осадки} ясно +17.8 +15.4 86 +19 +19 1012.4 948.1
21 15.08 С 1 20 км ясно +17.4 +14.5 83 +18 +18 1012.7 948.3
00 16.08 СВ 1 20 км ясно +15.4 +14.4 94 +16 +16 1012.4 947.6
03 16.08 В 1 20 км ясно +15.6 +14.1 91 +16 +16 1012.2 947.4 +15.1
06 16.08 Ю 1 20 км ясно +21.5 +15.1 67 +25 +34 комфорт 1010.5 947.1
09 16.08 20 км н/о +28.7 +16.3 47 +32 +38 душно 1007.7 946.0
12 16.08 ЮЗ 4 20 км 8/8 1000 м
[Sc diur, vesp]
+30.6 +16.2 42 +34 +35 очень
душно
1006.4 945.1
15 16.08 СВ 1 20 км {гроза} ясно +27.2 +16.2 51 +31 +32 душно 1006.6 944.6 +31.4
18 16.08 С 2 20 км {гроза} ясно +21.4 +16.4 73 +25 +25 комфорт 1009.1 945.8
21 16.08 С 1 20 км ясно +20.4 +15.6 74 +24 +24 комфорт 1009.7 946.1

 

Местоположение метеостанции Красная Поляна (Краснодарский край, Россия): широта 43.68 долгота 40.20 высота над уровнем моря 567 м.

В архиве по умолчанию представлена погода в Красной Поляне за последнюю неделю. Архивные данные за месяц целиком и за предыдущие месяцы, начиная с января 2011 года, Вы можете получить, выбрав интересующий диапазон дат из раскрывающегося списка и нажав кнопку "Ввод!".

Внимание! Время в таблицах - всемирное. Для получения местного времени необходимо прибавить поправку, которая в Красной Поляне равна 3 ч.

Смотрите также архив погоды в соседних городах и на ближайших метеорологических станциях:

Погода в Кепше (Краснодарский край, Россия) (14 км)
Погода в Гузерипле (Адыгея, Россия) (36 км)
Погода в Сочи (Краснодарский край, Россия) (36 км)
Погода в Сочи аэропорту (Адлер) (Краснодарский край, Россия) (37 км)
Погода в Псебае (Краснодарский край, Россия) (68 км)
Погода в Шунтуке (Адыгея, Россия) (88 км)
Погода в Горном (Краснодарский край, Россия) (100 км)
Погода в Туапсе (Краснодарский край, Россия) (102 км)
Погода в Майкопе (Адыгея, Россия) (105 км)
Погода в Зеленчукской (Карачаево-Черкессия, Россия) (112 км)

Пояснения к столбцам:

Ветер - указаны скорость ветра в м/с - средняя за 10 мин, порывы в срок и между сроками (в фигурных скобках) и направление, откуда дует ветер: С - северный, СВ - северо-восточный, В - восточный, ЮВ - юго-восточный, Ю - южный, ЮЗ - юго-западный, З - западный, СЗ - северо-западный.
Видимость - горизонтальная дальность видимости в метрах или километрах. При видимости от 1 до 10 км при отсутствии осадков обычно наблюдается дымка, при ухудшении видимости до 1 км и менее - туман. В сухую погоду видимость может ухудшаться дымом, пылью или мглою.
Явления - указаны атмосферные явления, наблюдавшиеся в срок или в последний час перед сроком; фигурными скобками обозначены явления, наблюдавшиеся между сроками (за 1-3 часа до срока); квадратными скобками обозначены град или гололедные отложения с указанием их диаметра в мм.
Облачность - указаны через наклонную черту общая и нижняя облачность в баллах и высота нижней границы облаков в метрах; квадратными скобками обозначены формы облаков: Ci - перистые, Cs - перисто-слоистые, Cc - перисто-кучевые, Ac - высококучевые, As - высокослоистые, Sc - слоисто-кучевые, Ns - слоисто-дождевые, Cu - кучевые, Cb - кучево-дождевые. Подробнее классификацию облаков см. в Атласе облаков (PDF).
T - Температура воздуха - температура, измеренная на высоте 2 м над землей.
Td - Температура точки росы - температура, при понижении до которой содержащийся в воздухе водяной пар достигнет насыщения.
f - Относительная влажность воздуха - влажноcть воздуха, измеренная на высоте 2 м над землей.
Te - Эффективная температура - температура, которую ощущает одетый по сезону человек в тени. Характеристика душности погоды. При расчете учитывается влияние влажности воздуха и скорости ветра на теплоощущения человека.
Tes - Эффективная температура на солнце - температура, которую ощущает человек, с поправкой на солнечный нагрев. Характеристика знойности погоды. Зависит от высоты солнца над горизонтом, облачности и скорости ветра. Ночью, в пасмурную погоду, а также при ветре 12 м/с и более поправка равна нулю.
P - Атмосферное давление - приведенное к уровню моря атмосферное давление.
Po - Атмосферное давление - измеренное на уровне метеостанции атмосферное давление.
Tmin - Минимальная температура - минимум температуры воздуха на высоте 2 м над землей.
Tmax - Максимальная температура - максимум температуры воздуха на высоте 2 м над землей.
R - Количество осадков - Количество выпавших осадков за период времени, мм. При наведении курсора мыши на число - период времени, за который выпало указанное количество осадков.
R24 - Количество осадков - Количество выпавших осадков за 24 часа, мм.
S - Снежный покров - Высота снежного покрова, см. При наведении курсора мыши на число - состояние снежного покрова и степень покрытия местности в баллах.